TimeCST,TemperatureF,Dew PointF,Humidity,Sea Level PressureIn,VisibilityMPH,Wind Direction,Wind SpeedMPH,Gust SpeedMPH,PrecipitationIn,Events,Conditions,WindDirDegrees,DateUTC
12:15 AM,35.6,26.6,70,29.95,10.0,East,3.5,-,N/A,,Clear,80,2013-02-05 06:15:00
12:35 AM,35.6,26.6,70,29.94,10.0,ENE,4.6,-,N/A,Thunderstorm,Clear,70,2013-02-05 06:35:00
12:55 AM,32.0,24.8,75,29.93,10.0,South,4.6,-,N/A,,Clear,170,2013-02-05 06:55:00
1:15 AM,32.0,24.8,75,29.93,10.0,SSE,4.6,-,N/A,,Clear,160,2013-02-05 07:15:00
1:35 AM,32.0,24.8,75,29.93,10.0,South,3.5,-,N/A,,Clear,170,2013-02-05 07:35:00
1:55 AM,32.0,26.6,80,29.94,10.0,North,3.5,-,N/A,,Clear,10,2013-02-05 07:55:00
2:15 AM,32.0,24.8,75,29.94,10.0,Calm,Calm,-,N/A,,Clear,0,2013-02-05 08:15:00
2:35 AM,32.0,26.6,80,29.94,10.0,Calm,Calm,-,N/A,,Clear,0,2013-02-05 08:35:00
2:55 AM,32.0,26.6,80,29.94,10.0,ENE,3.5,-,N/A,,Clear,70,2013-02-05 08:55:00
3:15 AM,32.0,26.6,80,29.93,10.0,Calm,Calm,-,N/A,,Clear,0,2013-02-05 09:15:00
3:35 AM,32.0,26.6,80,29.93,10.0,Calm,Calm,-,N/A,,Clear,0,2013-02-05 09:35:00
3:55 AM,32.0,26.6,80,29.93,10.0,Calm,Calm,-,N/A,,Clear,0,2013-02-05 09:55:00
4:15 AM,28.4,24.8,86,29.94,10.0,Calm,Calm,-,N/A,,Clear,0,2013-02-05 10:15:00
4:35 AM,28.4,23.0,80,29.93,10.0,Calm,Calm,-,N/A,,Clear,0,2013-02-05 10:35:00
4:55 AM,28.4,24.8,86,29.93,10.0,Calm,Calm,-,N/A,,Clear,0,2013-02-05 10:55:00
5:15 AM,26.6,24.8,93,29.93,10.0,Calm,Calm,-,N/A,,Clear,0,2013-02-05 11:15:00
5:35 AM,26.6,24.8,93,29.94,10.0,Calm,Calm,-,N/A,,Clear,0,2013-02-05 11:35:00
5:55 AM,28.4,24.8,86,29.94,10.0,Calm,Calm,-,N/A,,Clear,0,2013-02-05 11:55:00
6:15 AM,26.6,23.0,86,29.95,10.0,Calm,Calm,-,N/A,,Clear,0,2013-02-05 12:15:00
6:35 AM,24.8,23.0,93,29.96,10.0,North,3.5,-,N/A,,Clear,10,2013-02-05 12:35:00
6:55 AM,24.8,23.0,93,29.97,10.0,North,5.8,-,N/A,,Clear,350,2013-02-05 12:55:00
7:15 AM,24.8,23.0,93,29.98,10.0,North,4.6,-,N/A,,Clear,350,2013-02-05 13:15:00
7:35 AM,24.8,23.0,93,29.98,7.0,Calm,Calm,-,N/A,,Clear,0,2013-02-05 13:35:00
7:55 AM,26.6,24.8,93,29.99,8.0,North,6.9,-,N/A,,Clear,360,2013-02-05 13:55:00
8:15 AM,28.4,26.6,93,30.00,9.0,North,4.6,-,N/A,,Clear,360,2013-02-05 14:15:00
8:35 AM,32.0,26.6,80,30.01,9.0,North,4.6,-,N/A,,Clear,350,2013-02-05 14:35:00
8:55 AM,33.8,28.4,81,30.01,9.0,Calm,Calm,-,N/A,,Clear,0,2013-02-05 14:55:00
9:15 AM,37.4,30.2,75,30.01,10.0,Calm,Calm,-,N/A,,Clear,0,2013-02-05 15:15:00
9:35 AM,39.2,32.0,75,30.02,10.0,NW,6.9,-,N/A,,Clear,320,2013-02-05 15:35:00
9:55 AM,42.8,32.0,66,30.03,10.0,NNW,9.2,-,N/A,,Clear,340,2013-02-05 15:55:00
10:15 AM,44.6,32.0,61,30.04,10.0,NNW,8.1,-,N/A,,Clear,330,2013-02-05 16:15:00
10:35 AM,46.4,32.0,57,30.04,10.0,NW,8.1,-,N/A,,Clear,320,2013-02-05 16:35:00
10:55 AM,48.2,32.0,54,30.04,10.0,NW,8.1,-,N/A,,Clear,310,2013-02-05 16:55:00
11:15 AM,50.0,32.0,50,30.04,10.0,WNW,8.1,-,N/A,,Clear,300,2013-02-05 17:15:00
11:35 AM,53.6,32.0,44,30.04,10.0,WNW,8.1,-,N/A,,Clear,290,2013-02-05 17:35:00
11:55 AM,53.6,30.2,41,30.03,10.0,West,5.8,-,N/A,,Clear,260,2013-02-05 17:55:00
12:15 PM,55.4,30.2,38,30.02,10.0,West,6.9,-,N/A,,Clear,260,2013-02-05 18:15:00
12:35 PM,59.0,30.2,34,30.01,10.0,WSW,9.2,-,N/A,,Clear,240,2013-02-05 18:35:00
12:55 PM,59.0,30.2,34,30.01,10.0,WSW,9.2,-,N/A,,Clear,240,2013-02-05 18:55:00
1:15 PM,60.8,28.4,29,30.00,10.0,WSW,9.2,-,N/A,,Clear,250,2013-02-05 19:15:00
1:35 PM,60.8,28.4,29,30.00,10.0,West,9.2,-,N/A,,Clear,260,2013-02-05 19:35:00
1:55 PM,62.6,28.4,27,29.99,10.0,West,6.9,-,N/A,,Clear,280,2013-02-05 19:55:00
2:15 PM,62.6,28.4,27,29.99,10.0,West,8.1,-,N/A,,Clear,260,2013-02-05 20:15:00
2:35 PM,64.4,26.6,24,29.98,10.0,WNW,9.2,-,N/A,,Clear,300,2013-02-05 20:35:00
2:55 PM,64.4,26.6,24,29.98,10.0,NW,6.9,-,N/A,,Clear,320,2013-02-05 20:55:00
3:15 PM,64.4,26.6,24,29.98,10.0,NW,3.5,-,N/A,,Clear,310,2013-02-05 21:15:00
3:35 PM,64.4,26.6,24,29.97,10.0,NW,3.5,-,N/A,,Clear,320,2013-02-05 21:35:00
3:55 PM,64.4,26.6,24,29.97,10.0,Calm,Calm,-,N/A,,Clear,0,2013-02-05 21:55:00
4:15 PM,64.4,26.6,24,29.97,10.0,WNW,4.6,-,N/A,,Clear,290,2013-02-05 22:15:00
4:35 PM,64.4,26.6,24,29.97,10.0,Calm,Calm,-,N/A,,Clear,0,2013-02-05 22:35:00
4:55 PM,64.4,26.6,24,29.97,10.0,Calm,Calm,-,N/A,,Clear,0,2013-02-05 22:55:00
5:15 PM,64.4,26.6,24,29.97,10.0,Calm,Calm,-,N/A,,Clear,0,2013-02-05 23:15:00
5:35 PM,62.6,26.6,26,29.97,10.0,Calm,Calm,-,N/A,,Clear,0,2013-02-05 23:35:00
5:55 PM,59.0,26.6,29,29.98,10.0,SE,3.5,-,N/A,,Clear,130,2013-02-05 23:55:00
6:15 PM,57.2,26.6,31,29.98,10.0,ESE,3.5,-,N/A,,Clear,110,2013-02-06 00:15:00
6:35 PM,53.6,28.4,38,29.98,10.0,ESE,4.6,-,N/A,,Clear,110,2013-02-06 00:35:00
6:55 PM,53.6,28.4,38,29.98,10.0,East,4.6,-,N/A,,Clear,100,2013-02-06 00:55:00
7:15 PM,51.8,28.4,41,29.99,10.0,ESE,3.5,-,N/A,,Clear,110,2013-02-06 01:15:00
7:35 PM,48.2,28.4,46,29.99,10.0,Calm,Calm,-,N/A,,Clear,0,2013-02-06 01:35:00
7:55 PM,48.2,28.4,46,30.00,10.0,SSE,3.5,-,N/A,,Clear,150,2013-02-06 01:55:00
8:15 PM,46.4,28.4,50,30.00,10.0,South,3.5,-,N/A,,Clear,180,2013-02-06 02:15:00
8:35 PM,48.2,28.4,46,30.00,10.0,SE,3.5,-,N/A,,Clear,140,2013-02-06 02:35:00
8:55 PM,46.4,28.4,50,30.01,10.0,Calm,Calm,-,N/A,,Clear,0,2013-02-06 02:55:00
9:15 PM,46.4,28.4,50,30.01,6.0,Calm,Calm,-,N/A,,Haze,0,2013-02-06 03:15:00
9:35 PM,46.4,28.4,50,30.01,7.0,East,3.5,-,N/A,,Clear,80,2013-02-06 03:35:00
9:55 PM,44.6,28.4,53,30.01,10.0,ENE,3.5,-,N/A,,Clear,60,2013-02-06 03:55:00
10:15 PM,44.6,28.4,53,30.02,6.0,Calm,Calm,-,N/A,,Haze,0,2013-02-06 04:15:00
10:35 PM,42.8,28.4,57,30.02,10.0,NE,4.6,-,N/A,,Clear,40,2013-02-06 04:35:00
10:55 PM,41.0,28.4,61,30.02,10.0,NE,5.8,-,N/A,,Clear,50,2013-02-06 04:55:00
11:15 PM,39.2,28.4,65,30.02,10.0,East,5.8,-,N/A,,Clear,80,2013-02-06 05:15:00
11:35 PM,39.2,28.4,65,30.02,10.0,East,4.6,-,N/A,,Clear,80,2013-02-06 05:35:00
11:55 PM,39.2,28.4,65,30.03,10.0,ENE,4.6,-,N/A,,Clear,70,2013-02-06 05:55:00